TimePST,TemperatureF,Dew PointF,Humidity,Sea Level PressureIn,VisibilityMPH,Wind Direction,Wind SpeedMPH,Gust SpeedMPH,PrecipitationIn,Events,Conditions,WindDirDegrees,DateUTC
12:53 AM,55.0,50.0,83,30.11,7.0,Calm,Calm,-,N/A,,Clear,0,2012-11-27 08:53:00
1:53 AM,53.1,50.0,89,30.10,7.0,Calm,Calm,-,N/A,,Clear,0,2012-11-27 09:53:00
2:53 AM,54.0,50.0,86,30.10,7.0,Calm,Calm,-,N/A,,Clear,0,2012-11-27 10:53:00
3:53 AM,51.8,48.2,88,30.09,6.0,Calm,Calm,-,N/A,,Clear,0,2012-11-27 11:53:00
4:53 AM,52.0,48.9,89,30.12,7.0,Calm,Calm,-,N/A,,Clear,0,2012-11-27 12:53:00
5:16 AM,53.6,48.2,82,30.12,6.0,Calm,Calm,-,N/A,,Partly Cloudy,0,2012-11-27 13:16:00
5:35 AM,53.6,50.0,88,30.12,6.0,Calm,Calm,-,N/A,,Mostly Cloudy,0,2012-11-27 13:35:00
5:53 AM,54.0,50.0,86,30.14,6.0,Calm,Calm,-,N/A,,Overcast,0,2012-11-27 13:53:00
6:02 AM,55.4,51.8,88,30.14,7.0,Calm,Calm,-,N/A,,Overcast,0,2012-11-27 14:02:00
6:53 AM,54.0,50.0,86,30.15,4.0,ENE,3.5,-,N/A,,Overcast,60,2012-11-27 14:53:00
7:29 AM,53.6,50.0,88,30.16,5.0,Calm,Calm,-,N/A,,Scattered Clouds,0,2012-11-27 15:29:00
7:53 AM,55.9,51.1,84,30.16,5.0,East,3.5,-,N/A,,Haze,90,2012-11-27 15:53:00
8:53 AM,60.1,52.0,75,30.17,4.0,ENE,3.5,-,N/A,,Haze,70,2012-11-27 16:53:00
9:53 AM,61.0,52.0,72,30.17,6.0,Calm,Calm,-,N/A,,Haze,0,2012-11-27 17:53:00
10:53 AM,64.0,54.0,70,30.14,5.0,Calm,Calm,-,N/A,,Haze,0,2012-11-27 18:53:00
11:53 AM,66.0,53.1,63,30.10,5.0,South,3.5,-,N/A,,Haze,180,2012-11-27 19:53:00
12:53 PM,66.9,53.1,61,30.07,5.0,SSW,4.6,-,N/A,,Haze,200,2012-11-27 20:53:00
1:53 PM,66.0,53.1,63,30.05,7.0,SW,6.9,-,N/A,,Clear,220,2012-11-27 21:53:00
2:53 PM,64.9,52.0,63,30.06,10.0,WNW,11.5,-,N/A,,Clear,290,2012-11-27 22:53:00
3:53 PM,64.0,52.0,65,30.05,10.0,WNW,11.5,-,N/A,,Clear,300,2012-11-27 23:53:00
4:53 PM,62.1,52.0,70,30.06,10.0,WNW,9.2,-,N/A,,Clear,290,2012-11-28 00:53:00
5:53 PM,60.1,52.0,75,30.07,10.0,NW,3.5,-,N/A,,Clear,310,2012-11-28 01:53:00
6:53 PM,59.0,52.0,78,30.09,10.0,NW,4.6,-,N/A,,Clear,310,2012-11-28 02:53:00
7:53 PM,59.0,52.0,78,30.11,10.0,Calm,Calm,-,N/A,,Clear,0,2012-11-28 03:53:00
8:53 PM,57.0,52.0,83,30.12,10.0,East,4.6,-,N/A,,Clear,80,2012-11-28 04:53:00
9:53 PM,57.0,52.0,83,30.14,10.0,North,4.6,-,N/A,,Clear,10,2012-11-28 05:53:00
10:50 PM,55.4,51.8,88,30.15,8.0,NNW,4.6,-,N/A,,Mostly Cloudy,340,2012-11-28 06:50:00
10:53 PM,55.9,52.0,87,30.15,8.0,North,4.6,-,N/A,,Mostly Cloudy,360,2012-11-28 06:53:00
11:53 PM,57.9,53.1,84,30.14,9.0,Calm,Calm,-,N/A,,Overcast,0,2012-11-28 07:53:00